HST
1 20580U 90037B   24189.43690992  .00004627  00000-0  21201-3 0  9998
2 20580  28.4668 209.4325 0002309 250.0269 110.0075 15.18002489680112
ISS (ZARYA)
1 25544U 98067A   24190.44377875  .00011255  00000-0  20698-3 0  9993
2 25544  51.6384 210.0211 0010380  43.2836 113.9664 15.49669940461840
CXO
1 25867U 99040B   24191.66312343  .00000408  00000-0  00000+0 0  9996
2 25867  41.6496 151.7250 8871285 297.9290   0.1797  0.37808744 25808